星链-30208 (STARLINK-30208 )

导读

STARLINK-30208是美国太空探索技术公司星链星座的成员,于2023年7月20日发射入轨,属于星链互联网卫星组网项目的扩容卫星。它依托星链系统低轨卫星星座架构,可为全球偏远地区、海上空中移动载体提供高速低延迟的宽带互联网服务,进一步完善了星链星座的全球覆盖能力与服务稳定性。

基本信息
目录编号:
57415
目录名称:
STARLINK-30208
国际标识:
2023-102M
轨道中心:
EARTH
卫星名称:
星链-30208
卫星全名:
星链-30208 (STARLINK-30208 )
卫星状态:
在轨 (已飞行1142 天)
发射日期:
2023-07-20 UTC
国别 :
美国 (US)
星等 :
--
轨道信息
数据来源 国际轨道数据
星历时间: 2026-09-04T14:42:41+0800
8小时前
查看轨道信息
半长轴: 6861.163km
偏心率: 0.0001791
轨道倾角: 43.002°
近地点辐角 276.278°
升交点赤经 319.945°
平近点角 83.787°
近地点: 481.797km
远地点: 484.255km
周期: 94.266分钟
每日圈数: 15.275878
详细信息
固有亮度:
5
最大亮度:
0.3
卫星平台:
Starlink v2.0 mini
覆盖范围:
全球
运营商:
太空探索技术公司
运营商所在国:
美国
制造商(研发单位):
太空探索技术公司
制造商所在国:
美国
使用方式:
暂无
卫星简介
星链(Starlink)计划是由太空探索技术公司(SpaceX)提出的一个巨型低轨卫星互联网星座项目,计划在2019年至2024年间在太空搭建由约1.2万颗卫星组成的“星链”网络,其中1584颗将部署在地球上空550千米处的近地轨道,并从2020年开始工作。该卫星仍在工作。
2D轨道图
3D轨道图
轨道高度分析图
轨道倾角分析图
轨道综合分析图
查看轨道综合分析图
交会数据列表
事件ID 空间交会对象 最接近时刻(TCA) 交会距离 交会风险概率(CRP) 交会风险指数(CRI) 操作
CDM_260905-014005-741506-680821
2026-09-05T
01:40:27+0000
0.574 km
远距离
1.121568E-4 高风险 0.76
CDM_260904-114105-741506-390221
2026-09-04T
11:41:22+0000
0.700 km
远距离
4.754881E-5 中风险 0.69
CDM_260903-161705-741506-425221
2026-09-03T
16:17:37+0000
0.772 km
远距离
3.06114E-5 中风险 0.65
CDM_260906-090905-741506-275221
2026-09-06T
09:09:16+0000
0.864 km
远距离
2.786302E-5 中风险 0.64
CDM_260904-215305-741506-390221
2026-09-04T
21:53:23+0000
0.873 km
远距离
2.324842E-5 中风险 0.62
CDM_260906-202405-741506-425221
2026-09-06T
20:24:06+0000
0.840 km
远距离
2.323061E-5 中风险 0.62
CDM_260906-073505-741506-275221
2026-09-06T
07:35:07+0000
0.979 km
远距离
1.823466E-5 中风险 0.6
CDM_260906-132005-741506-425221
2026-09-06T
13:20:25+0000
0.957 km
远距离
1.492444E-5 中风险 0.58
CDM_260906-114605-741506-425221
2026-09-06T
11:46:16+0000
1.069 km
极远距离
1.018511E-5 中风险 0.55
CDM_260903-100204-344105-741523
2026-09-03T
10:02:37+0000
1.285 km
极远距离
8.176575E-6 低风险 0.53